Regional Weather Roundup
Issued by NWS

Home | Current Version | Previous Version | Text Only | Print | Product List | Glossary Off
Versions: 1 2 3 4 5 6 7 8 9 10 11 12 13 14 15 16 17 18 19 20 21 22 23 24 25 26 27 28 29 30 31 32 33 34 35 36 37 38 39 40 41 42 43 44 45 46 47 48 49 50

652
ASUS43 KDMX 271503
RWRIA

WEATHER ROUNDUP FOR IOWA
NATIONAL WEATHER SERVICE DES MOINES IA
1000 AM CDT FRI MAY 27 2016

NOTE: "FAIR" INDICATES FEW OR NO CLOUDS BELOW 12,000 FEET WITH NO
SIGNIFICANT WEATHER AND/OR OBSTRUCTIONS TO VISIBILITY.

* - THESE STATIONS ARE NOT NWS STATIONS...THUS NOT UNDER NWS
QUALITY CONTROL.  THEY ALSO DO NOT REPORT WEATHER SUCH
AS PRECIPITATION OR FOG.

IAZ001>003-012>014-020>022-031>034-043>046-271600-
   NORTHWEST IOWA

CITY           SKY/WX    TMP DP  RH WIND       PRES   REMARKS
CARROLL *      PTSUNNY   64  61  88 SE9       29.77S
CHEROKEE *     CLOUDY    63  62  98 CALM      29.78F
LE MARS *      CLOUDY    63  61  94 CALM      29.80S
ORANGE CITY *  LGT RAIN  61  59  94 S6        29.79F
SHELDON *      CLOUDY    64  59  82 S7        29.78F
SIOUX CITY     CLOUDY    66  60  81 E3        29.77F
SPENCER        LGT RAIN  64  59  83 S10       29.79S
STORM LAKE *   SUNNY     63  59  88 CALM      29.78F
$$

IAZ055>058-069>071-079>083-090>094-271600-
   SOUTHWEST IOWA

CITY           SKY/WX    TMP DP  RH WIND       PRES   REMARKS
ATLANTIC *     CLOUDY    66  61  82 E5        29.76F
AUDUBON *      MOSUNNY   64  61  88 E6        29.78F
CLARINDA *       N/A     66  63  88 MISG      29.75S
COUNCIL BLFS *   N/A     66  61  82 CALM      29.77S
CRESTON *      CLOUDY    63  63 100 NE8       29.76F FOG
HARLAN  *      CLOUDY    66  61  82 SE7       29.80S
LAMONI         CLOUDY    64  64 100 NE5       29.73S FOG
RED OAK *      CLOUDY    66  61  82 NE5       29.75F
SHENANDOAH *   CLOUDY    66  63  88 NE8       29.74F
$$

IAZ047>049-059>061-072>074-084-271600-
   CENTRAL IOWA

CITY           SKY/WX    TMP DP  RH WIND       PRES   REMARKS
AMES           LGT RAIN  63  61  93 E3        29.77F FOG
ANKENY *       CLOUDY    63  63 100 SE6       29.76F FOG
BOONE *        CLOUDY    63  63 100 E7        29.77F FOG
CHARITON *     CLOUDY    64  64 100 E6        29.74F FOG
DES MOINES     LGT RAIN  64  61  90 E7        29.75F FOG
GRINNELL*      CLOUDY    64  61  88 SE9       29.79F
KNOXVILLE *    CLOUDY    64  63  94 SE6       29.74F
MARSHALLTOWN   CLOUDY    64  62  93 SE10      29.78R FOG
NEWTON *       CLOUDY    64  64 100 SE8G14    29.76F FOG
PERRY *        DRIZZLE   63  63 100 E7        29.77F
$$

IAZ004>006-015-016-023>025-035-036-271600-
   NORTH CENTRAL IOWA

CITY           SKY/WX    TMP DP  RH WIND       PRES   REMARKS
ALGONA *       MOSUNNY   64  61  88 SE7       29.80S
CLARION *      CLOUDY    64  63  94 E9        29.79F
ESTHERVILLE    CLOUDY    64  59  83 S16       29.79S
FORT DODGE *   CLOUDY    64  57  77 E9        29.78F
MASON CITY     LGT RAIN  63  61  93 E5        29.81F
FOREST CITY *  DRIZZLE   63  59  88 E6        29.81S
WEBSTER CITY * LGT RAIN  63  63 100 E9        29.77R
IOWA FALLS *   LGT RAIN  64  61  88 E9        29.79S
$$

IAZ007>011-017>019-026>030-037>042-050>054-066-271600-
   NORTHEAST IOWA

CITY           SKY/WX    TMP DP  RH WIND       PRES   REMARKS
CEDAR RAPIDS   CLOUDY    68  66  93 SE10      29.79S
CHARLES CITY * CLOUDY    66  64  94 E7        29.81S
CLINTON *      LGT RAIN  71  66  84 S15       29.84F
DECORAH *      PTSUNNY   68  64  88 E8        29.81S
DUBUQUE        CLOUDY    67  62  84 S14       29.84F
MONTICELLO *   CLOUDY    68  63  83 SE12      29.81F
OELWEIN *      CLOUDY    68  64  88 SE14      29.81S
WATERLOO       CLOUDY    68  60  75 E13       29.78S
$$

IAZ064-065-067-068-078-271600-
   EAST CENTRAL IOWA

CITY           SKY/WX    TMP DP  RH WIND       PRES   REMARKS
DAVENPORT      CLOUDY    70  65  84 S17       29.82F
IOWA CITY      CLOUDY    71  66  84 S9        29.79F
MT. PLEASANT * PTSUNNY   73  70  88 S13       29.77F
MUSCATINE *    CLOUDY    70  64  83 SE8       29.78F
QUAD CITIES    CLOUDY    71  65  81 SE12      29.81F
$$

IAZ062-063-075>077-085>089-095>099-271600-
   SOUTHEAST IOWA

CITY           SKY/WX    TMP DP  RH WIND       PRES   REMARKS
BURLINGTON     CLOUDY    70  67  90 S18       29.79F
FAIRFIELD *      N/A    N/A N/A N/A MISG        N/A
FORT MADISON * CLOUDY    70  66  88 S16G25    29.81R
KEOKUK *       CLOUDY    70  66  88 S17       29.79R
OSKALOOSA *    PTSUNNY   71  66  85 S14       29.77F
OTTUMWA        PTSUNNY   73  66  78 S16G22    29.76S
WASHINGTON *   PTSUNNY   72  72 100 S13G20    29.78F
$$

ABBREVIATIONS USED IN REMARKS
   TC - TEMPERATURES IN CELSIUS
  WCI - WIND CHILL INDEX
   HX - HEAT INDEX
  VSB - VISIBILITY
$$





USA.gov is the U.S. government's official web portal to all federal, state and local government web resources and services.